www.pogodaiklimat.ru

Погода и климат >> Архив погоды >> Россия >> Камчатский край >> Мыс Африка


ПОГОДА на Мысе Африка

  • Прогноз погоды на Мысе Африка
  • Монитор погоды на Мысе Африка

АРХИВ ПОГОДЫ на Мысе Африка

Время (UTC), дата Ветер
(напр.,м/с)
 
Видим.   Явления Облачность Т
(С)
Тd
(С)
f
(%)
Тe
(С)
Тes
(С)
Комфортность P
(гПа)
Po
(гПа)
Тmin
(С)
Tmax
(С)
R
(мм)
R24
(мм)
S
(см)
15 12.08 штиль 0 2000 м дымка 10/10 300 м
[Sc]
+9.2 +8.7 97 +8 +8 1003.0 1001.3
18 12.08 С 2 2000 м дымка 10 баллов +10.0 +9.5 97 +8 +8 1003.0 1001.3
21 12.08 СВ 3 2000 м дымка 9/5 300 м
[Sc Ac trans Ci fib]
+10.8 +10.3 97 +9 +10 1003.0 1001.4 +9.0
00 13.08 СВ 4 2000 м дымка 8/6 300 м
[Sc Ac trans]
+11.6 +10.5 93 +9 +11 1003.5 1001.9
03 13.08 Ю 2 2000 м дымка 9/8 300 м
[Sc Ac lent]
+11.1 +9.8 92 +10 +11 1005.7 1004.0
06 13.08 ЮЗ 3 4000 м дымка 6/4 600 м
[Sc Ac trans]
+11.6 +10.2 91 +10 +11 1005.7 1004.0
09 13.08 ЮЗ 4 4000 м дымка 4/4 600 м
[Sc]
+9.3 +8.4 94 +6 +6 1005.8 1004.2 +12.7
12 13.08 ЮЗ 5 500 м туман ?/? +9.1 +8.6 97 +6 +6 1008.4 1006.7
15 13.08 ЮЗ 4 500 м туман ?/? +8.6 +8.3 98 +5 +5 1008.4 1006.7
18 13.08 ЮЗ 4 500 м туман ?/? +8.7 +8.3 97 +5 +5 1009.7 1008.0
21 13.08 Ю 4 500 м туман ?/? +8.8 +8.2 96 +6 +6 1009.5 1007.9 +8.4
00 14.08 ЮЗ 5 2000 м в посл. час туман 10/10 300 м
[St]
+8.6 +7.8 95 +5 +5 1010.1 1008.5
03 14.08 ЮЗ 4 2000 м дымка 10/10 300 м
[St]
+9.2 +8.6 96 +6 +6 1012.4 1010.7
06 14.08 Ю 2 4000 м дымка 10/10 300 м
[St]
+9.6 +8.4 92 +8 +8 1012.4 1010.7
09 14.08 штиль 0 4000 м дымка 10/10 300 м
[Sc]
+8.9 +8.0 94 +8 +8 1012.7 1011.1 +9.8
12 14.08 штиль 0 2000 м дымка 10/10 300 м
[Sc]
+8.0 +7.2 95 +7 +7 1013.3 1011.7
15 14.08 С 4 2000 м дымка 8/8 300 м
[Sc]
+8.5 +7.9 96 +5 +5 1013.7 1012.0
18 14.08 С 3 20 км 9/9 300 м
[Sc]
+10.5 +7.7 83 +8 +8 1013.7 1012.0
21 14.08 С 6-10
{10}
20 км 8/5 300 м
[Sc Ac trans]
+11.3 +9.1 86 +8 +9 1012.9 1011.3 +6.7
00 15.08 С 7-10
{12}
4000 м дымка 10/10 300 м
[St]
+10.0 +9.1 94 +6 +6 1012.9 1011.3
03 15.08 С 7-13
{14}
4000 м дымка 10/10 200 м
[St]
+10.5 +9.4 93 +7 +7 1012.2 1010.6
06 15.08 С 10-14
{14}
4000 м дымка 10/10 200 м
[St]
+10.2 +9.3 94 +6 +6 1012.4 1010.7
09 15.08 С 11-14
{15}
4000 м дымка 10/10 200 м
[St]
+10.0 +8.9 93 +5 +5 1012.4 1010.7 +11.7
12 15.08 С 11-16
{18}
4000 м дымка 10/10 200 м
[St]
+10.3 +8.6 89 +6 +6 1010.7 1009.1
15 15.08 С 10-15
{18}
4000 м дымка 10/10 200 м
[St]
+10.3 +8.9 91 +6 +6 1009.7 1008.1
18 15.08 С 11-18
{20}
4000 м слаб. ливневой дождь 10/10 300 м
[Cb cap]
+10.0 +9.2 95 +5 +5 1007.5 1005.9
21 15.08 С 16-24
{24}
2000 м ливневой дождь 10/10 300 м
[Cb cap]
+9.9 +9.0 94 +4 +4 1006.1 1004.5 +9.7 2
00 16.08 С 17-27
{28}
2000 м ливневой дождь 10/10 300 м
[Cb cap]
+9.4 +8.5 94 +3 +3 1003.8 1002.2 +9.4
03 16.08 С 16-27
{29}
1000 м ливневой дождь 10/10 300 м
[Cb cap]
+7.9 +7.1 95 +1 +1 1003.7 1002.1
06 16.08 С 16-24
{29}
2000 м ливневой дождь 10/10 300 м
[Cb cap]
+7.8 +6.9 94 +1 +1 1002.9 1001.3
09 16.08 С 15-22
{25}
2000 м ливневой дождь 10/10 300 м
[Cb cap]
+7.9 +7.1 95 +1 +1 1003.2 1001.6 +10.2 49
12 16.08 С 11-16
{22}
2000 м ливневой дождь 10/10 300 м
[Cb cap]
+8.5 +7.6 94 +3 +3 1004.1 1002.5
15 16.08 С 10-13
{16}
4000 м слаб. ливневой дождь 10/10 300 м
[Cb cap]
+9.0 +8.2 95 +4 +4 1005.2 1003.6
18 16.08 С 11-14
{16}
4000 м слаб. ливневой дождь 10/10 300 м
[Cb cap]
+9.0 +8.4 96 +4 +4 1006.0 1004.4
21 16.08 СВ 8-11
{14}
2000 м слаб. ливневой дождь 10/10 300 м
[Cb cap]
+9.0 +8.4 96 +4 +4 1008.2 1006.6 +7.8 16
00 17.08 СВ 7
{11}
2000 м дымка {ливн. осадки} 10/10 300 м
[Sc]
+9.2 +8.6 96 +5 +5 1010.3 1008.7
03 17.08 СВ 7-10
{10}
2000 м слаб. морось 10/10 200 м
[St]
+9.5 +8.9 96 +5 +5 1011.6 1010.0
06 17.08 СВ 8-11
{11}
2000 м слаб. морось 10/10 200 м
[St]
+9.1 +8.5 96 +5 +5 1013.0 1011.4
09 17.08 СВ 8-11
{12}
2000 м дымка 10/10 300 м
[St]
+8.9 +8.1 95 +4 +4 1014.3 1012.7 +9.5 0.6
12 17.08 С 8-11
{12}
2000 м дымка 8/8 300 м
[Sc]
+8.6 +7.7 94 +4 +4 1015.2 1013.6
15 17.08 С 8-12
{13}
2000 м дымка 10/10 300 м
[Sc]
+8.5 +7.7 95 +4 +4 1014.7 1013.1
18 17.08 С 8-12
{13}
2000 м слаб. ливневой дождь 10/10 200 м
[Cb cap]
+8.2 +7.6 96 +3 +3 1014.3 1012.7
21 17.08 С 9-13
{14}
4000 м слаб. ливневой дождь 10/10 300 м
[Cb cap]
+8.6 +7.7 94 +4 +4 1014.0 1012.4 +8.2 1
00 18.08 С 9-13
{14}
4000 м дымка {ливн. осадки} 8/6 300 м
[Sc Ci fib]
+9.6 +8.5 93 +5 +5 1014.6 1013.0
03 18.08 С 9-12
{14}
4000 м дымка 10/10 300 м
[St]
+9.6 +8.5 93 +5 +5 1016.0 1014.4
06 18.08 С 7-11
{13}
4000 м дымка 8/8 300 м
[St]
+9.6 +7.9 89 +6 +6 1017.0 1015.3
09 18.08 С 6
{11}
4000 м дымка 10/10 300 м
[St]
+8.8 +7.6 92 +5 +5 1019.0 1017.3 +10.0 0.3
12 18.08 С 5
{10}
4000 м дымка 10/10 300 м
[St]
+8.7 +7.5 92 +5 +5 1020.0 1018.3
15 18.08 С 7-11
{12}
4000 м дымка 10/10 300 м
[St]
+8.6 +7.4 92 +4 +4 1020.8 1019.1
18 18.08 С 8-11
{12}
4000 м дымка 10/10 300 м
[St]
+9.0 +7.6 91 +4 +4 1021.0 1019.3
21 18.08 С 8-13
{13}
4000 м дымка 10/10 300 м
[St]
+9.1 +7.9 92 +5 +5 1022.1 1020.4 +8.6
00 19.08 С 7-11
{13}
4000 м дымка 10/10 300 м
[St]
+9.2 +8.0 92 +5 +5 1023.5 1021.8
03 19.08 С 6
{11}
4000 м слаб. морось 10/10 300 м
[St]
+9.3 +8.1 92 +5 +5 1024.2 1022.5
06 19.08 СВ 5
{10}
4000 м слаб. морось 10/10 200 м
[St]
+8.7 +7.6 93 +5 +5 1025.7 1024.0
09 19.08 С 5 4000 м дымка 10 баллов +8.5 +7.3 92 +5 +5 1027.0 1025.3 +9.5 0.4

 

Местоположение метеостанции Мыс Африка (Камчатский край, Россия): широта 56.18 долгота 163.30 высота над уровнем моря 14 м.

В архиве по умолчанию представлена погода на Мысе Африка за последнюю неделю. Архивные данные за месяц целиком и за предыдущие месяцы, начиная с января 2011 года, Вы можете получить, выбрав интересующий диапазон дат из раскрывающегося списка и нажав кнопку "Ввод!".


*Определитесь, кто Вы:
робот инопланетянин человек

Внимание! Время в таблицах - всемирное. Для получения местного времени необходимо прибавить поправку, которая равна 12 ч.

Смотрите также архив погоды в соседних городах и на ближайших метеорологических станциях:

Погода в Усть-Камчатске (Камчатский край, Россия) (37 км)
Погода в Ключах (Камчатский край, Россия) (155 км)
Погода на Мысе Озерном (Камчатский край, Россия) (164 км)
Погода на Острове Беринга (Камчатский край, Россия) (196 км)
Погода в Козыревске (Камчатский край, Россия) (217 км)
Погода в Эссо (Камчатский край, Россия) (287 км)
Погода в Долиновке (Камчатский край, Россия) (294 км)
Погода в Семячике (Камчатский край, Россия) (315 км)
Погода в Тигиле (Камчатский край, Россия) (334 км)
Погода в Оссоре (Камчатский край, Россия) (340 км)

Пояснения к столбцам:

Ветер - указаны скорость ветра в м/с - средняя за 10 мин, порывы в срок и между сроками (в фигурных скобках) и направление, откуда дует ветер: С - северный, СВ - северо-восточный, В - восточный, ЮВ - юго-восточный, Ю - южный, ЮЗ - юго-западный, З - западный, СЗ - северо-западный.
Видимость - горизонтальная дальность видимости в метрах или километрах. При видимости от 1 до 10 км при отсутствии осадков обычно наблюдается дымка, при ухудшении видимости до 1 км и менее - туман. В сухую погоду видимость может ухудшаться дымом, пылью или мглою.
Явления - указаны атмосферные явления, наблюдавшиеся в срок или в последний час перед сроком; фигурными скобками обозначены явления, наблюдавшиеся между сроками (за 1-3 часа до срока); квадратными скобками обозначены град или гололедные отложения с указанием их диаметра в мм.
Облачность - указаны через наклонную черту общая и нижняя облачность в баллах и высота нижней границы облаков в метрах; квадратными скобками обозначены формы облаков: Ci - перистые, Cs - перисто-слоистые, Cc - перисто-кучевые, Ac - высококучевые, As - высокослоистые, Sc - слоисто-кучевые, Ns - слоисто-дождевые, Cu - кучевые, Cb - кучево-дождевые. Подробнее классификацию облаков см. в Атласе облаков (PDF).
T - Температура воздуха - температура, измеренная на высоте 2 м над землей.
Td - Температура точки росы - температура, при понижении до которой содержащийся в воздухе водяной пар достигнет насыщения.
f - Относительная влажность воздуха - влажноcть воздуха, измеренная на высоте 2 м над землей.
Te - Эффективная температура - температура, которую ощущает одетый по сезону человек в тени. Характеристика душности погоды. При расчете учитывается влияние влажности воздуха и скорости ветра на теплоощущения человека.
Tes - Эффективная температура на солнце - температура, которую ощущает человек, с поправкой на солнечный нагрев. Характеристика знойности погоды. Зависит от высоты солнца над горизонтом, облачности и скорости ветра. Ночью, в пасмурную погоду, а также при ветре 12 м/с и более поправка равна нулю.
P - Атмосферное давление - приведенное к уровню моря атмосферное давление.
Po - Атмосферное давление - измеренное на уровне метеостанции атмосферное давление.
Tmin - Минимальная температура - минимум температуры воздуха на высоте 2 м над землей.
Tmax - Максимальная температура - максимум температуры воздуха на высоте 2 м над землей.
R - Количество осадков - Количество выпавших осадков за период времени, мм. При наведении курсора мыши на число - период времени, за который выпало указанное количество осадков.
R24 - Количество осадков - Количество выпавших осадков за 24 часа, мм.
S - Снежный покров - Высота снежного покрова, см. При наведении курсора мыши на число - состояние снежного покрова и степень покрытия местности в баллах.